Hourly Data Report for October 18, 2015

All times are specified in Local Standard Time (LST). Add 1 hour to adjust for Daylight Saving Time where and when it is observed.

CAPE DORSET A
NUNAVUT

64°13'49.000" N
76°31'30.000" W
48.20 m
2400637
71366
YTE

Download Data

Hourly Data (October 2015)
Hourly Data Report for October 18, 2015
Temp Definition
°C
Dew Point Temp Definition
°C
Rel Hum Definition
%
Wind Dir Definition
10's deg

Wind Spd Definition
km/h
Visibility Definition
km
Stn Press Definition
kPa
Hmdx Definition


Wind Chill Definition


Weather Definition


TIME
00:00 Legend Double Dagger -5.9 -6.6 95 27 9 16.1 100.44   -10 Snow
01:00 Legend Double Dagger -6.9 -7.4 96 LegendMM 4 16.1 100.46   -9 LegendNANA
02:00 Legend Double Dagger -6.3 -7.5 91 LegendMM 4 16.1 100.46   -8 LegendNANA
03:00 Legend Double Dagger -6.7 -7.8 92 LegendMM 4 16.1 100.45   -9 LegendNANA
04:00 Legend Double Dagger -7.1 -7.8 95 26 11 16.1 100.45   -12 Snow
05:00 Legend Double Dagger -7.5 -7.9 97 26 9 16.1 100.47   -12 LegendNANA
06:00 Legend Double Dagger -8.0 -8.9 93 25 5 16.1 100.48   -11 LegendNANA
07:00 Legend Double Dagger -7.5 -8.9 90 25 5 16.1 100.47   -10 LegendNANA
08:00 Legend Double Dagger -7.9 -9.2 90 25 5 16.1 100.48   -11 LegendNANA
09:00 Legend Double Dagger -7.6 -9.3 88 27 8 16.1 100.47   -12 LegendNANA
10:00 Legend Double Dagger -7.2 -9.3 85 26 8 16.1 100.47   -11 LegendNANA
11:00 Legend Double Dagger -6.7 -9.0 84 26 11 16.1 100.48   -12 LegendNANA
12:00 Legend Double Dagger -6.2 -8.5 84 26 13 16.1 100.45   -12 LegendNANA
13:00 Legend Double Dagger -6.1 -8.4 84 26 9 16.1 100.43   -10 LegendNANA
14:00 Legend Double Dagger -6.3 -9.0 81 26 5 16.1 100.42   -9 LegendNANA
15:00 Legend Double Dagger -5.9 -9.0 79 26 13 16.1 100.41   -11 LegendNANA
16:00 Legend Double Dagger -6.8 -9.8 79 25 4 16.1 100.39   -9 LegendNANA
17:00 Legend Double Dagger -7.1 -9.7 82 27 4 16.1 100.35   -9 LegendNANA
18:00 Legend Double Dagger -7.2 -10.4 78 25 4 16.1 100.31   -9 LegendNANA
19:00 Legend Double Dagger -6.8 -10.3 77 32 4 16.1 100.28   -9 LegendNANA
20:00 Legend Double Dagger -7.5 -9.5 86   0 16.1 100.24     LegendNANA
21:00 Legend Double Dagger -7.9 -10.0 85   0 16.1 100.18     LegendNANA
22:00 Legend Double Dagger -6.9 -9.0 85   0 16.1 100.10     LegendNANA
23:00 Legend Double Dagger -6.7 -8.5 87 23 8 16.1 100.03   -11 LegendNANA

Notes on Data Quality.

Legend

  • E = Estimated
  • M = Missing
  • NA = Not Available
  • ‡ = Partner data that is not subject to review by the National Climate Archives
Date modified: